UAL2170 KIAH-KMSY

Flight info

Callsign UAL2170
Flight time 0h 45m
Altitude 29000
Route GUMBY3 GUSTI AWDAD AWDAD1
Aircraft B739/M-SDE2E3FGHIRWXY/LB1

Departure

Time 2026-05-07 01:31
Airport George Bush Intercontinental Airport (KIAH)

Arrival

Time 2026-05-07 02:16
Airport Louis Armstrong New Orleans International Airport (KMSY)
Time Latitude Longitude Altitude Speed Heading
2026-05-07 01:03 29.98822 -95.34224 101 ft 0 kts 143°
2026-05-07 01:21 29.98836 -95.34236 100 ft 4 kts 143°
2026-05-07 01:21 29.98858 -95.34255 101 ft 4 kts 140°
2026-05-07 01:21 29.98877 -95.34277 100 ft 4 kts 127°
2026-05-07 01:21 29.98886 -95.34293 100 ft 0 kts 112°
2026-05-07 01:24 29.98898 -95.34263 101 ft 7 kts 39°
2026-05-07 01:24 29.98944 -95.34250 101 ft 7 kts
2026-05-07 01:25 29.98992 -95.34249 101 ft 7 kts
2026-05-07 01:25 29.99039 -95.34249 101 ft 7 kts
2026-05-07 01:25 29.99086 -95.34211 101 ft 10 kts 72°
2026-05-07 01:25 29.99089 -95.34123 101 ft 11 kts 90°
2026-05-07 01:26 29.99089 -95.34031 101 ft 12 kts 90°
2026-05-07 01:26 29.99089 -95.33939 101 ft 11 kts 90°
2026-05-07 01:26 29.99089 -95.33850 101 ft 11 kts 90°
2026-05-07 01:26 29.99089 -95.33759 101 ft 12 kts 90°
2026-05-07 01:27 29.99127 -95.33685 101 ft 11 kts 17°
2026-05-07 01:27 29.99178 -95.33625 101 ft 13 kts 84°
2026-05-07 01:27 29.99179 -95.33511 101 ft 17 kts 90°
2026-05-07 01:27 29.99179 -95.33374 101 ft 17 kts 90°
2026-05-07 01:28 29.99179 -95.33241 101 ft 16 kts 90°
2026-05-07 01:28 29.99179 -95.33114 100 ft 16 kts 90°
2026-05-07 01:28 29.99179 -95.32991 100 ft 15 kts 91°
2026-05-07 01:28 29.99179 -95.32873 100 ft 14 kts 90°
2026-05-07 01:29 29.99179 -95.32760 100 ft 14 kts 90°
2026-05-07 01:29 29.99179 -95.32653 100 ft 13 kts 90°
2026-05-07 01:29 29.99189 -95.32554 100 ft 12 kts 52°
2026-05-07 01:29 29.99262 -95.32537 100 ft 10 kts
2026-05-07 01:30 29.99329 -95.32541 99 ft 10 kts 336°
2026-05-07 01:30 29.99345 -95.32612 100 ft 10 kts 270°
2026-05-07 01:30 29.99345 -95.32950 101 ft 83 kts 270°
2026-05-07 01:30 29.99344 -95.33906 101 ft 153 kts 269°
2026-05-07 01:31 29.99343 -95.35238 632 ft 167 kts 271°
2026-05-07 01:31 29.99294 -95.36635 1219 ft 184 kts 272°
2026-05-07 01:31 29.99203 -95.38154 1879 ft 197 kts 270°
2026-05-07 01:31 29.99119 -95.39771 2514 ft 206 kts 269°
2026-05-07 01:32 29.99054 -95.41436 3069 ft 209 kts 267°
2026-05-07 01:32 29.98680 -95.43067 3541 ft 216 kts 237°
2026-05-07 01:32 29.97555 -95.44202 4039 ft 221 kts 205°
2026-05-07 01:32 29.96010 -95.44470 4435 ft 233 kts 178°
2026-05-07 01:33 29.94361 -95.44204 4737 ft 244 kts 173°
2026-05-07 01:33 29.92684 -95.43869 5016 ft 251 kts 173°
2026-05-07 01:33 29.90874 -95.43494 4998 ft 273 kts 172°
2026-05-07 01:33 29.89010 -95.43026 5010 ft 278 kts 159°
2026-05-07 01:34 29.87501 -95.41663 5017 ft 280 kts 124°
2026-05-07 01:34 29.86905 -95.39536 5276 ft 285 kts 95°
2026-05-07 01:34 29.86708 -95.37269 6093 ft 285 kts 99°
2026-05-07 01:34 29.86385 -95.35033 6775 ft 289 kts 102°
2026-05-07 01:35 29.85992 -95.32706 7434 ft 295 kts 103°
2026-05-07 01:35 29.85579 -95.30404 8055 ft 301 kts 103°
2026-05-07 01:35 29.85138 -95.28025 8693 ft 306 kts 104°
2026-05-07 01:35 29.84684 -95.25611 9333 ft 312 kts 104°
2026-05-07 01:36 29.84216 -95.23147 9924 ft 318 kts 104°
2026-05-07 01:36 29.83735 -95.20628 10369 ft 330 kts 105°
2026-05-07 01:36 29.83225 -95.17960 10492 ft 351 kts 105°
2026-05-07 01:36 29.82684 -95.15141 10703 ft 368 kts 105°
2026-05-07 01:37 29.82238 -95.12202 11140 ft 377 kts 97°
2026-05-07 01:37 29.82114 -95.09165 11715 ft 381 kts 94°
2026-05-07 01:37 29.82043 -95.06094 12272 ft 385 kts 94°
2026-05-07 01:37 29.81949 -95.03002 12828 ft 389 kts 95°
2026-05-07 01:38 29.81830 -94.99866 13371 ft 393 kts 96°
2026-05-07 01:38 29.81817 -94.96697 13871 ft 400 kts 89°
2026-05-07 01:38 29.82016 -94.93486 14356 ft 404 kts 88°
2026-05-07 01:38 29.82247 -94.90306 14840 ft 408 kts 88°
2026-05-07 01:39 29.82489 -94.86977 15315 ft 412 kts 88°
2026-05-07 01:39 29.82716 -94.83674 15793 ft 416 kts 88°
2026-05-07 01:39 29.82934 -94.80336 16244 ft 420 kts 88°
2026-05-07 01:39 29.83149 -94.76962 16716 ft 425 kts 88°
2026-05-07 01:40 29.83373 -94.73556 17194 ft 428 kts 88°
2026-05-07 01:40 29.83611 -94.70119 17657 ft 433 kts 88°
2026-05-07 01:40 29.83856 -94.66647 18100 ft 437 kts 88°
2026-05-07 01:40 29.84104 -94.63140 18499 ft 441 kts 88°
2026-05-07 01:41 29.84351 -94.59615 18926 ft 444 kts 88°
2026-05-07 01:41 29.84598 -94.56059 19354 ft 446 kts 88°
2026-05-07 01:41 29.84844 -94.52486 19767 ft 449 kts 88°
2026-05-07 01:41 29.85090 -94.48884 20180 ft 452 kts 88°
2026-05-07 01:42 29.85337 -94.45263 20591 ft 455 kts 88°
2026-05-07 01:42 29.85581 -94.41665 20994 ft 458 kts 88°
2026-05-07 01:42 29.85830 -94.37994 21392 ft 462 kts 88°
2026-05-07 01:42 29.86079 -94.34292 21793 ft 464 kts 88°
2026-05-07 01:43 29.86258 -94.30572 22179 ft 466 kts 93°
2026-05-07 01:43 29.86195 -94.26836 22573 ft 467 kts 96°
2026-05-07 01:43 29.86040 -94.23089 22975 ft 470 kts 97°
2026-05-07 01:43 29.85870 -94.19327 23354 ft 472 kts 96°
2026-05-07 01:44 29.85718 -94.15531 23688 ft 476 kts 96°
2026-05-07 01:44 29.85589 -94.11712 23996 ft 479 kts 96°
2026-05-07 01:44 29.85471 -94.07867 24296 ft 481 kts 95°
2026-05-07 01:44 29.85410 -94.04000 24601 ft 486 kts 91°
2026-05-07 01:45 29.85707 -94.00103 24916 ft 490 kts 85°
2026-05-07 01:45 29.86129 -93.96198 25244 ft 493 kts 84°
2026-05-07 01:45 29.86585 -93.92277 25546 ft 495 kts 84°
2026-05-07 01:45 29.87046 -93.88333 25831 ft 498 kts 84°
2026-05-07 01:46 29.87499 -93.84358 26121 ft 501 kts 84°
2026-05-07 01:46 29.87939 -93.80369 26424 ft 504 kts 85°
2026-05-07 01:46 29.88372 -93.76347 26697 ft 507 kts 85°
2026-05-07 01:46 29.88798 -93.72311 26983 ft 509 kts 85°
2026-05-07 01:47 29.89223 -93.68259 27311 ft 510 kts 85°
2026-05-07 01:47 29.89645 -93.64204 27694 ft 509 kts 85°
2026-05-07 01:47 29.90067 -93.60153 28098 ft 509 kts 85°
2026-05-07 01:47 29.90486 -93.56121 28521 ft 508 kts 85°
2026-05-07 01:48 29.90906 -93.52077 28914 ft 507 kts 85°
2026-05-07 01:48 29.91744 -93.43953 28927 ft 512 kts 84°
2026-05-07 01:49 29.92577 -93.35858 28910 ft 505 kts 85°
2026-05-07 01:49 29.93399 -93.27806 28915 ft 506 kts 85°
2026-05-07 01:50 29.94215 -93.19756 28913 ft 506 kts 85°
2026-05-07 01:50 29.94891 -93.13053 28911 ft 506 kts 85°
2026-05-07 01:51 29.95837 -93.03620 28914 ft 507 kts 85°
2026-05-07 01:51 29.96506 -92.96906 28912 ft 507 kts 85°
2026-05-07 01:52 29.97298 -92.88828 28919 ft 507 kts 85°
2026-05-07 01:52 29.97971 -92.80744 28918 ft 506 kts 86°
2026-05-07 01:53 29.98596 -92.72657 28915 ft 506 kts 86°
2026-05-07 01:53 29.99228 -92.64578 28917 ft 505 kts 86°
2026-05-07 01:54 29.99865 -92.56543 28899 ft 495 kts 86°
2026-05-07 01:54 30.00175 -92.52643 28890 ft 482 kts 86°
2026-05-07 01:54 30.00480 -92.48792 28446 ft 483 kts 86°
2026-05-07 01:54 30.00782 -92.44944 27972 ft 480 kts 86°
2026-05-07 01:55 30.01077 -92.41170 27479 ft 477 kts 86°
2026-05-07 01:55 30.01373 -92.37370 26983 ft 474 kts 86°
2026-05-07 01:55 30.01666 -92.33593 26511 ft 471 kts 86°
2026-05-07 01:55 30.01957 -92.29838 26033 ft 468 kts 86°
2026-05-07 01:56 30.02244 -92.26110 25557 ft 465 kts 86°
2026-05-07 01:56 30.02528 -92.22402 25101 ft 463 kts 86°
2026-05-07 01:56 30.02810 -92.18714 24648 ft 460 kts 86°
2026-05-07 01:56 30.03090 -92.15045 24199 ft 457 kts 86°
2026-05-07 01:57 30.03366 -92.11404 23761 ft 455 kts 86°
2026-05-07 01:57 30.03640 -92.07791 23293 ft 449 kts 86°
2026-05-07 01:57 30.03909 -92.04225 22762 ft 443 kts 86°
2026-05-07 01:57 30.04173 -92.00710 22242 ft 437 kts 86°
2026-05-07 01:58 30.04432 -91.97245 21852 ft 429 kts 86°
2026-05-07 01:58 30.04687 -91.93844 21469 ft 421 kts 87°
2026-05-07 01:58 30.04934 -91.90510 21096 ft 414 kts 87°
2026-05-07 01:58 30.05178 -91.87219 20728 ft 409 kts 87°
2026-05-07 01:59 30.05418 -91.83954 20373 ft 409 kts 87°
2026-05-07 01:59 30.05658 -91.80687 20026 ft 409 kts 87°
2026-05-07 01:59 30.05897 -91.77410 19678 ft 410 kts 87°
2026-05-07 01:59 30.06135 -91.74137 19335 ft 409 kts 87°
2026-05-07 02:00 30.06373 -91.70863 18993 ft 409 kts 87°
2026-05-07 02:00 30.06611 -91.67592 18656 ft 408 kts 87°
2026-05-07 02:00 30.06846 -91.64334 18325 ft 406 kts 87°
2026-05-07 02:00 30.07080 -91.61098 17952 ft 403 kts 87°
2026-05-07 02:01 30.07311 -91.57888 17556 ft 399 kts 88°
2026-05-07 02:01 30.07539 -91.54707 17187 ft 396 kts 88°
2026-05-07 02:01 30.07764 -91.51554 16808 ft 393 kts 88°
2026-05-07 02:01 30.07986 -91.48419 16374 ft 392 kts 88°
2026-05-07 02:02 30.08208 -91.45289 15942 ft 391 kts 88°
2026-05-07 02:02 30.08428 -91.42165 15516 ft 390 kts 88°
2026-05-07 02:02 30.08647 -91.39053 15124 ft 387 kts 88°
2026-05-07 02:02 30.08863 -91.35965 14757 ft 385 kts 88°
2026-05-07 02:03 30.09078 -91.32898 14409 ft 382 kts 89°
2026-05-07 02:03 30.09290 -91.29861 14066 ft 378 kts 89°
2026-05-07 02:03 30.09499 -91.26843 13708 ft 376 kts 89°
2026-05-07 02:03 30.09706 -91.23856 13267 ft 370 kts 89°
2026-05-07 02:04 30.09909 -91.20919 12847 ft 365 kts 89°
2026-05-07 02:04 30.10108 -91.18021 12424 ft 359 kts 89°
2026-05-07 02:04 30.10304 -91.15159 12009 ft 355 kts 89°
2026-05-07 02:04 30.10496 -91.12340 11598 ft 350 kts 89°
2026-05-07 02:05 30.10685 -91.09556 11196 ft 346 kts 89°
2026-05-07 02:05 30.10872 -91.06802 10794 ft 342 kts 89°
2026-05-07 02:05 30.11056 -91.04077 10411 ft 339 kts 89°
2026-05-07 02:05 30.11238 -91.01371 10081 ft 337 kts 89°
2026-05-07 02:06 30.11419 -90.98673 9735 ft 337 kts 89°
2026-05-07 02:06 30.11599 -90.95980 9358 ft 336 kts 89°
2026-05-07 02:06 30.11634 -90.93321 8973 ft 327 kts 97°
2026-05-07 02:06 30.11441 -90.90730 8596 ft 321 kts 100°
2026-05-07 02:07 30.11197 -90.88227 8231 ft 315 kts 100°
2026-05-07 02:07 30.10730 -90.83230 7449 ft 308 kts 99°
2026-05-07 02:07 30.10521 -90.80794 6965 ft 310 kts 99°
2026-05-07 02:08 30.10316 -90.78312 6483 ft 311 kts 98°
2026-05-07 02:08 30.10114 -90.75792 5979 ft 311 kts 98°
2026-05-07 02:08 30.09915 -90.73308 5473 ft 311 kts 98°
2026-05-07 02:08 30.09718 -90.70835 5112 ft 305 kts 98°
2026-05-07 02:09 30.09407 -90.68461 4818 ft 294 kts 107°
2026-05-07 02:09 30.08892 -90.66216 4524 ft 285 kts 110°
2026-05-07 02:09 30.08346 -90.64042 4217 ft 279 kts 110°
2026-05-07 02:09 30.07818 -90.61923 4044 ft 270 kts 110°
2026-05-07 02:10 30.07328 -90.59916 4021 ft 255 kts 110°
2026-05-07 02:10 30.06869 -90.58017 3993 ft 236 kts 110°
2026-05-07 02:10 30.06446 -90.56268 3972 ft 215 kts 111°
2026-05-07 02:10 30.06050 -90.54642 3997 ft 210 kts 111°
2026-05-07 02:11 30.05652 -90.53010 3912 ft 213 kts 111°
2026-05-07 02:11 30.05251 -90.51362 3663 ft 212 kts 111°
2026-05-07 02:11 30.04862 -90.49748 3413 ft 205 kts 111°
2026-05-07 02:11 30.04487 -90.48190 3184 ft 199 kts 111°
2026-05-07 02:12 30.04115 -90.46654 2955 ft 199 kts 112°
2026-05-07 02:12 30.03743 -90.45121 2712 ft 198 kts 112°
2026-05-07 02:12 30.03381 -90.43615 2470 ft 189 kts 112°
2026-05-07 02:12 30.03048 -90.42223 2265 ft 173 kts 114°
2026-05-07 02:13 30.02738 -90.40935 2052 ft 160 kts 115°
2026-05-07 02:13 30.02447 -90.39732 1860 ft 152 kts 115°
2026-05-07 02:13 30.02163 -90.38562 1691 ft 152 kts 115°
2026-05-07 02:13 30.01881 -90.37397 1503 ft 150 kts 115°
2026-05-07 02:14 30.01598 -90.36232 1313 ft 151 kts 113°
2026-05-07 02:14 30.01318 -90.35063 1135 ft 151 kts 112°
2026-05-07 02:14 30.01137 -90.34285 1021 ft 152 kts 111°
2026-05-07 02:14 30.00797 -90.32705 773 ft 152 kts 112°
2026-05-07 02:15 30.00500 -90.31538 610 ft 151 kts 112°
2026-05-07 02:15 30.00225 -90.30373 424 ft 149 kts 110°
2026-05-07 02:15 29.99938 -90.29243 235 ft 144 kts 109°
2026-05-07 02:15 29.99660 -90.28142 42 ft 141 kts 110°
2026-05-07 02:16 29.99410 -90.27125 13 ft 117 kts 105°
2026-05-07 02:16 29.99245 -90.26431 13 ft 65 kts 105°
2026-05-07 02:16 29.99168 -90.26118 10 ft 21 kts 105°
2026-05-07 02:16 29.99129 -90.25960 12 ft 20 kts 107°
2026-05-07 02:17 29.99077 -90.25813 11 ft 20 kts 117°
2026-05-07 02:17 29.99011 -90.25702 13 ft 12 kts 131°
2026-05-07 02:17 29.98955 -90.25637 13 ft 11 kts 135°
2026-05-07 02:17 29.98911 -90.25564 12 ft 11 kts 115°
2026-05-07 02:18 29.98889 -90.25482 10 ft 11 kts 103°
2026-05-07 02:18 29.98872 -90.25402 11 ft 7 kts 105°
2026-05-07 02:18 29.98847 -90.25354 9 ft 7 kts 149°
2026-05-07 02:18 29.98800 -90.25362 10 ft 7 kts 214°
2026-05-07 02:19 29.98761 -90.25395 12 ft 7 kts 217°
2026-05-07 02:19 29.98726 -90.25423 12 ft 6 kts 203°
2026-05-07 02:19 29.98693 -90.25407 11 ft 5 kts 132°
2026-05-07 02:19 29.98679 -90.25387 11 ft 2 kts 127°
2026-05-07 02:20 29.98676 -90.25382 11 ft 0 kts 127°